Weather History for KITR - March, 2014

Change the Weather History Date:

Monday, March 31, 2014

  Actual Average Record
Temperature  
Mean Temperature 41 °F 44 °F  
Max Temperature 59 °F 59 °F 85 °F (1946)
Min Temperature 23 °F 29 °F 11 °F (1931)
Degree Days  
Heating Degree Days 22    
Moisture  
Dew Point 18 °F    
Average Humidity 34    
Maximum Humidity 69    
Minimum Humidity 19    
Precipitation  
Precipitation 0.00 in 0.04 in 0.26 in (1960)
Month to date precipitation 0.08 0.89  
Year to date precipitation 0.78 1.69  
Sea Level Pressure  
Sea Level Pressure 29.74 in    
Wind  
Wind Speed 24 mph (NW)    
Max Wind Speed 45 mph    
Max Gust Speed 56 mph    
Visibility 9 miles    
Events      
T = Trace of Precipitation, MM = Missing Value Source: NWS Daily Summary

Daily Weather History Graph

Daily Weather History Graph

Search for Another Location

Airport or City:

Trip Planner

Search our weather history database for the weather conditions in past years. The results will help you decide how hot, cold, wet, or windy it might be!

Date:

Astronomy

Mar. 31, 2014 Rise Set
Actual Time 6:35 AM MDT 7:12 PM MDT
Civil Twilight 6:08 AM MDT 7:39 PM MDT
Nautical Twilight 5:36 AM MDT 8:10 PM MDT
Astronomical Twilight 5:03 AM MDT 8:43 PM MDT
Moon 7:00 AM MDT (3/31) 8:32 PM MDT (3/31)
Length of Visible Light 13h 30m
Length of Day
12h 36m
New Moon, 1% of the Moon is Illuminated
Mar 31
New Moon
Apr 7
First Quarter
Apr 15
Full
Apr 22
Last Quarter
Apr 29
New

Hourly Weather History & Observations

Time (MDT) Temp. Windchill Dew Point Humidity Pressure Visibility Wind Dir Wind Speed Gust Speed Precip Events Conditions
12:53 AM 55.0 °F - 16.0 °F 22% 29.39 in 10.0 mi WSW 23.0 mph - N/A   Mostly Cloudy
1:15 AM 55.9 °F - 23.0 °F 28% 29.52 in 8.0 mi WNW 20.7 mph - N/A   Overcast
1:53 AM 53.1 °F - 12.9 °F 20% 29.42 in 10.0 mi West 15.0 mph - N/A   Partly Cloudy
2:53 AM 46.0 °F 39.3 °F 12.0 °F 25% 29.44 in 10.0 mi WSW 16.1 mph 24.2 mph N/A   Clear
3:53 AM 48.0 °F - 9.0 °F 21% 29.44 in 10.0 mi WSW 27.6 mph - N/A   Clear
4:53 AM 45.0 °F 36.9 °F 10.0 °F 24% 29.49 in 10.0 mi WSW 20.7 mph - N/A   Clear
5:53 AM 45.0 °F 37.6 °F 16.0 °F 31% 29.54 in 10.0 mi West 17.3 mph - N/A   Clear
6:53 AM 45.0 °F 35.2 °F 21.0 °F 39% 29.61 in 10.0 mi NW 29.9 mph 42.6 mph N/A   Partly Cloudy
7:53 AM 43.0 °F 33.5 °F 28.9 °F 58% 29.65 in 10.0 mi NNW 24.2 mph 31.1 mph N/A   Clear
8:53 AM 46.0 °F 36.5 °F 26.1 °F 46% 29.69 in 10.0 mi NW 31.1 mph 40.3 mph N/A   Clear
9:53 AM 50.0 °F - 24.1 °F 36% 29.70 in 10.0 mi NNW 28.8 mph 41.4 mph N/A   Clear
10:53 AM 53.1 °F - 19.9 °F 27% 29.75 in 10.0 mi NNW 36.8 mph 49.5 mph N/A   Clear
11:53 AM 55.9 °F - 19.0 °F 24% 29.73 in 10.0 mi NNW 38.0 mph 49.5 mph N/A   Partly Cloudy
12:53 PM 59.0 °F - 16.0 °F 19% 29.73 in 8.0 mi NW 39.1 mph 49.5 mph N/A   Mostly Cloudy
1:10 PM 57.9 °F - 15.1 °F 19% 29.82 in 4.0 mi NW 44.9 mph 56.4 mph N/A   Haze
1:53 PM 57.9 °F - 15.1 °F 19% 29.75 in 6.0 mi NW 39.1 mph 52.9 mph N/A   Haze
2:07 PM 57.9 °F - 16.0 °F 19% 29.85 in 8.0 mi NW 38.0 mph 50.6 mph N/A   Overcast
2:53 PM 55.9 °F - 17.1 °F 22% 29.81 in 10.0 mi NNW 29.9 mph 44.9 mph N/A   Partly Cloudy
3:53 PM 55.9 °F - 18.0 °F 23% 29.83 in 10.0 mi NNW 29.9 mph 40.3 mph N/A   Clear
4:53 PM 53.1 °F - 19.0 °F 26% 29.86 in 10.0 mi North 26.5 mph 33.4 mph N/A   Clear
5:53 PM 50.0 °F - 18.0 °F 28% 29.90 in 10.0 mi North 26.5 mph 32.2 mph N/A   Clear
6:53 PM 45.0 °F 37.6 °F 18.0 °F 34% 29.95 in 10.0 mi NNE 17.3 mph - N/A   Clear
7:53 PM 39.9 °F 31.1 °F 21.0 °F 47% 29.98 in 10.0 mi NNE 17.3 mph - N/A   Clear
8:53 PM 36.0 °F 29.0 °F 21.0 °F 55% 30.03 in 10.0 mi NE 9.2 mph - N/A   Clear
9:53 PM 33.1 °F 25.5 °F 21.9 °F 64% 30.03 in 10.0 mi NE 9.2 mph - N/A   Clear
10:53 PM 28.0 °F 24.2 °F 19.0 °F 69% 30.04 in 10.0 mi ESE 3.5 mph - N/A   Clear
11:53 PM 28.0 °F 24.2 °F 19.0 °F 69% 30.04 in 10.0 mi SE 3.5 mph - N/A   Clear